Location: Fond Mahaut
(18.0707°N, 63.0465°W)
Time: 04:58:30
(UTC+00:00)

STARLINK-80 - Pass Details

Date: 08 December 2019
Orbit: 489 x 497 km, 53.0° (Epoch: 23 January)

Event Time Altitude Azimuth Distance (km) Brightness Sun altitude
Rises 22:18:23 0° 212° (SSW) 2,543 8.0 -10.0°
Reaches altitude 10° 22:20:33 10° 210° (SSW) 1,665 6.9 -10.5°
Maximum altitude 22:24:17 71° 127° (SE) 516 3.3 -11.4°
Enters shadow 22:27:15 16° 43° (NE) 1,355 5.1 -12.0°
